Home   Weather   Nagasaki   Past weeks

Flag for Japan Past Weather in Nagasaki, Japan — Yesterday and Last 2 Weeks

Now
48 °F

Partly sunny.


Feels Like: 42 °F
Forecast: 38 / 48 °F
Wind: 15 mph from Northwest

Location: Nagasaki Airport

Current Time: Feb 24, 2017 at 5:17:17 pm

Latest Report: Feb 24, 2017 at 4:00 pm


Visibility: N/A

Pressure: 30.12 "Hg

Humidity: 43%

Dew Point: 27 °F

Location of NagasakiLocation

Past Weather in Nagasaki — Graph

°F

Nagasaki Temperature Yesterday

Maximum temperature yesterday: 50 °F (at 6:10 am)
Minimum temperature yesterday: 46 °F (at 6:00 pm)
Average temperature yesterday: 48 °F

High & Low Weather Summary for the Past Weeks

 TemperatureHumidityPressure
High66 °F (Feb 17, 12:00 pm)94% (Feb 17, 9:00 am)30.48 "Hg (Feb 17, 9:00 am)
Low32 °F (Feb 11, 7:00 am)26% (Feb 13, 3:00 pm)29.74 "Hg (Feb 22, 8:13 pm)
Average48 °F65%30.13 "Hg
* Reported Feb 9 4:00 pm — Feb 24 4:00 pm, Nagasaki, Weather by CustomWeather, © 2017

Note: Actual official high and low records may vary slightly from our data, if they occured in-between our weather recording intervals... More about our weather records

Advertising

Nagasaki Weather History for the Previous 24 Hours

Scroll right to see more
 ConditionsComfort  
Time TempWeatherWind HumidityBarometerVisibility
4:00 pm
Fri, Feb 24
48 °FPartly sunny.15 mph43%30.12 "HgN/A
3:00 pm50 °FPartly sunny.15 mph43%30.12 "HgN/A
2:00 pm50 °FPartly sunny.14 mph40%30.09 "HgN/A
1:00 pm50 °FPartly sunny.12 mph47%30.12 "HgN/A
12:00 pm50 °FPartly sunny.10 mph47%30.15 "HgN/A
11:00 am48 °FPartly sunny.14 mph50%30.15 "HgN/A
10:00 am46 °FPartly sunny.14 mph57%30.15 "HgN/A
9:00 am46 °FPartly sunny.9 mph57%30.18 "HgN/A
8:00 am43 °FPartly sunny.7 mph66%30.15 "HgN/A
7:00 am41 °FPartly sunny.6 mph66%30.12 "HgN/A
6:10 am41 °FPassing clouds.5 mph66%30.12 "HgN/A
9:00 pm
Thu, Feb 23
46 °FPassing clouds.12 mph62%30.01 "HgN/A
8:00 pm46 °FPassing clouds.12 mph62%30.01 "HgN/A
7:00 pm46 °FPassing clouds.15 mph66%30.01 "HgN/A
6:00 pm46 °FBroken clouds.17 mph66%29.98 "HgN/A
5:00 pm48 °FBroken clouds.15 mph62%29.95 "HgN/A
Weather by CustomWeather, © 2017

See weather overviewHow to use our weather pages